Regional Weather Roundup
Issued by NWS

Home | Current Version | Previous Version | Graphics & Text | Print | Product List | Glossary On
Versions: 1 2 3 4 5 6 7 8 9 10 11 12 13 14 15 16 17 18 19 20 21 22 23 24 25 26 27 28 29 30 31 32 33 34 35 36 37 38 39 40 41 42 43 44 45 46 47 48 49 50
903
ASUS45 KBOU 290107
RWRCO

WEATHER ROUNDUP FOR COLORADO
NATIONAL WEATHER SERVICE DENVER/BOULDER CO
700 PM MDT FRI JUL 28 2017

NOTE: "FAIR" INDICATES FEW OR NO CLOUDS BELOW 12000 FEET WITH NO
SIGNIFICANT WEATHER AND/OR OBSTRUCTIONS TO VISIBILITY.

COZ001>005-013-030-031-290200-
...NORTHWEST COLORADO...

CITY           SKY/WX    TMP DP  RH WIND       PRES   REMARKS
CRAIG          FAIR      82  42  24 CALM      30.18S
HAYDEN         FAIR      81  39  22 NW10      30.20S
MEEKER         FAIR      76  49  38 SW15      30.21R
RABBIT EARS PA FAIR      61  43  51 N6        30.55S
STEAMBOAT SPGS FAIR      82  41  23 NW10      30.21S
WALDEN         FAIR      75  37  25 N15       30.34R
$$

COZ006>008-011-290200-
...WEST CENTRAL VALLEYS...

CITY           SKY/WX    TMP DP  RH WIND       PRES   REMARKS
GRAND JUNCTION LGT RAIN  73  62  68 S15       30.16R
MONTROSE       RAIN      65  62  90 SW3       30.26R FOG
EAGLE          FAIR      72  52  49 E3        30.28R
RIFLE          LGT RAIN  70  59  68 E13       30.23R
DELTA          CLOUDY    75  59  58 SE3G17    30.20R
NUCLA          RAIN      64  59  82 E10       30.30R
$$

COZ017>023-064>068-290200-
...SOUTHWEST COLORADO...

CITY           SKY/WX    TMP DP  RH WIND       PRES   REMARKS
DURANGO        CLOUDY    69  52  54 E3        30.25R
CORTEZ         LGT RAIN  67  60  78 N8        30.17R
PAGOSA SPRINGS PTSUNNY   61  59  92 CALM      30.32F
TELLURIDE      LGT RAIN  56  55  95 SE6       30.47S
WOLF CREEK PAS CLOUDY    50  46  87 CALM      30.67S
$$

COZ009-010-012-014-032>034-037-058>063-290200-
...CENTRAL COLORADO...

CITY           SKY/WX    TMP DP  RH WIND       PRES   REMARKS
ASPEN          CLOUDY    64  56  75 N6        30.34F
BUENA VISTA    DRIZZLE   62  54  76 E6        30.40S
COPPER MTN     CLOUDY    52  43  71 S5        30.67F
BERTHOUD PASS  CLOUDY    43  32  65 S9        30.70F
COTTONWOOD PAS LGT RAIN  59  48  67 CALM      30.53S
GUNNISON       FAIR      62  55  77 NE5       30.37R
KREMMLING      FAIR      79  45  29 SW13      30.27F
LEADVILLE      CLOUDY    53  48  83 NW5       30.49F
MONARCH PASS   CLOUDY    46  45  93 NE15      30.74S
SALIDA         CLOUDY    63  59  87 SW3       30.44F
SUNLIGHT       LGT RAIN  48  46  93 NW9       30.62S
WILKERSON PASS CLOUDY    52  43  71 W6        30.64S
$$

COZ069>075-290200-
...SAN LUIS VALLEY/SANGRE DE CRISTO MOUNTAINS...

CITY           SKY/WX    TMP DP  RH WIND       PRES   REMARKS
ALAMOSA        LGT RAIN  61  57  87 NW14      30.30R
DEL NORTE      RAIN      59  56  89 E3        30.38R
LA VETA PASS   NOT AVBL
SAGUACHE         N/A    N/A N/A N/A MISG        N/A
$$

COZ035-036-038>040-290200-
...NORTHERN COLORADO FRONT RANGE...

CITY           SKY/WX    TMP DP  RH WIND       PRES   REMARKS
DENVER INTL AP PTSUNNY   76  51  41 SW16      30.08F
DMNS CITY PARK   N/A     73  56  55 SW13G18   30.10F
AURORA         PTSUNNY   71  54  53 SW13      30.13F
FRONT RANGE AP FAIR      75  54  46 SW14      30.12F
ERIE MUNI ARPT FAIR      74  54  49 SW12G18   30.09F
BOULDER MUN AP PTSUNNY   75  52  43 W12       30.12F
CENTENNIAL     CLOUDY    72  53  51 SW14      30.16F
BROOMFIELD     FAIR      73  54  49 W16       30.15F
FORT COLLINS   CLOUDY    81  55  41 SE12      30.10R
LONGMONT       FAIR      79  54  41 SW15      30.10F
$$

COZ041-046-047-076>085-087-088-290200-
...PIKES PEAK/PALMER DIVIDE AND SOUTHERN FOOTHILLS...

CITY           SKY/WX    TMP DP  RH WIND       PRES   REMARKS
COLO. SPRINGS  LGT RAIN  71  51  49 VRB3      30.26R
A. F. ACADEMY  PTSUNNY   69  53  57 SE7       30.25S
SCHRIEVER AFB  LGT RAIN  64  54  69 N8        30.23R
CHEYENNE MTN   SHOWER    64  53  68 S13       30.26R
ELLICOTT       TSTM     N/A N/A N/A NE14      30.21F
FALCON           N/A     64  52  66 E8        30.28S
FORT CARSON    LGT RAIN  67  58  72 SW15      30.24R
LIMON          FAIR      70  59  68 NE8       30.14R
MONUMENT HILL  FAIR      64  52  63 S14       30.27S
CANON CITY     RAIN      72  63  73 CALM      30.24R
WALSENBURG     FAIR      73  59  60 N18G24    30.20R
TRINIDAD       FAIR      80  51  36 W9        30.15R
$$

COZ042>045-048>051-090-091-290200-
...NORTHEAST COLORADO...

CITY           SKY/WX    TMP DP  RH WIND       PRES   REMARKS
GREELEY ARPT   TSTM      68  60  75 S12G20    30.09F
AKRON          FAIR      76  57  51 SE15      30.08R
BURLINGTON     TSTM      66  60  81 SE8       30.11F
WRAY           NOT AVBL
YUMA           FAIR      72  55  56 SE7       30.05R
STERLING       FAIR      70  61  73 NE24G46   30.05R THUNDER HAZE
HOLYOKE        FAIR      81  68  65 E9        30.05R
FORT MORGAN    FAIR      81  60  48 SE18G24   30.06S
$$

COZ086-089-092>099-290200-
...SOUTHEAST COLORADO...

CITY           SKY/WX    TMP DP  RH WIND       PRES   REMARKS
PUEBLO         TSTM      69  62  78 NW18G25   30.14R
LA JUNTA       FAIR      88  63  43 S10       30.04R
LAMAR          FAIR      85  65  51 SE9       29.99R
SPRINGFIELD      N/A     83  64  52 SE14      30.05S
$$




USA.gov is the U.S. government's official web portal to all federal, state and local government web resources and services.